Location: Newark
(50.8922°N, 11.6094°E)
Time: 22:29:29
(UTC+00:00)

N. Korean satellite - Pass Details

Date: 31 January 2020
Orbit: 456 x 505 km, 97.2° (Epoch: 19 February)

Event Time Altitude Azimuth Distance (km) Brightness Sun altitude
Rises 04:41:08 0° 19° (NNE) 2,557 10.4 -20.7°
Reaches altitude 10° 04:43:17 10° 27° (NNE) 1,681 9.6 -20.3°
Maximum altitude 04:46:42 39° 98° (E) 758 8.1 -19.8°
Drops below altitude 10° 04:50:08 10° 168° (SSE) 1,692 9.5 -19.3°
Sets 04:52:19 0° 176° (S) 2,576 10.4 -18.9°
